Location: Newark
(23.3970°S, 47.6010°W)
Time: 15:46:44
(UTC+00:00)

Courier 1B - All Passes

Search period start: 21 February 2020 00:00
Search period end: 02 March 2020 00:00
Orbit: 962 x 1209 km, 28.3° (Epoch: 21 February)

Date Brightness Start Highest point End Pass type
(mag) Time Alt. Az. Time Alt. Az. Time Alt. Az.
21 Feb - 03:48:24 10° NNW 03:53:01 20° NNE 03:57:44 10° ENE night (unlit)
21 Feb - 05:40:10 10° WNW 05:46:39 64° NNE 05:53:29 10° ESE visible
21 Feb - 07:34:09 10° W 07:40:52 67° S 07:48:03 10° ESE visible
21 Feb - 09:28:38 10° WSW 09:35:36 60° S 09:43:01 10° E daylight
21 Feb - 11:22:51 10° WSW 11:30:15 89° NNW 11:38:03 10° ENE daylight
21 Feb - 13:17:32 10° W 13:24:29 39° NNW 13:31:38 10° NE daylight
21 Feb - 15:16:13 10° NW 15:18:29 11° NNW 15:20:46 10° NNW daylight
22 Feb - 02:56:12 10° N 02:59:23 14° NNE 03:02:35 10° ENE night (unlit)
22 Feb - 04:46:44 10° NW 04:52:57 49° NNE 04:59:25 10° E visible
22 Feb - 06:40:20 10° W 06:46:58 75° SSW 06:54:01 10° ESE visible
22 Feb - 08:34:48 10° WSW 08:41:35 58° S 08:48:49 10° E visible
22 Feb - 10:29:04 10° WSW 10:36:16 79° SSE 10:43:56 10° ENE daylight
22 Feb - 12:23:25 10° W 12:30:35 50° NNW 12:38:03 10° NE daylight
22 Feb - 14:20:01 10° WNW 14:24:36 17° NNW 14:29:15 10° N daylight
23 Feb - 03:53:27 10° NW 03:59:19 36° NNE 04:05:17 10° E night (unlit)
23 Feb - 05:46:35 10° WNW 05:53:09 88° SSW 06:00:03 10° ESE visible
23 Feb - 07:40:58 10° W 07:47:36 58° S 07:54:39 10° ESE visible
23 Feb - 09:35:17 10° WSW 09:42:17 69° SSE 09:49:44 10° E daylight
23 Feb - 11:29:28 10° WSW 11:36:41 63° NNW 11:44:16 10° NE daylight
23 Feb - 13:25:01 10° W 13:30:44 23° NNW 13:36:34 10° NNE daylight
24 Feb - 03:00:24 10° NNW 03:05:41 27° NNE 03:11:00 10° E night (unlit)
24 Feb - 04:52:54 10° WNW 04:59:23 77° NNE 05:06:06 10° ESE visible
24 Feb - 06:47:08 10° W 06:53:40 61° S 07:00:34 10° ESE visible
24 Feb - 08:41:32 10° WSW 08:48:19 62° S 08:55:32 10° E visible
24 Feb - 10:35:39 10° WSW 10:42:46 77° NNW 10:50:21 10° ENE daylight
24 Feb - 12:30:32 10° W 12:36:52 31° NNW 12:43:27 10° NNE daylight
25 Feb - 02:07:38 10° NNW 02:12:03 19° NNE 02:16:26 10° ENE night (unlit)
25 Feb - 03:59:18 10° NW 04:05:40 60° NNE 04:12:10 10° ESE night (unlit)
25 Feb - 05:53:17 10° W 05:59:46 67° S 06:06:34 10° ESE visible
25 Feb - 07:47:46 10° WSW 07:54:21 58° S 08:01:21 10° E visible
25 Feb - 09:41:53 10° WSW 09:48:52 89° SSE 09:56:20 10° ENE daylight
25 Feb - 11:36:22 10° W 11:43:01 40° NNW 11:50:02 10° NE daylight
25 Feb - 13:34:24 10° NW 13:37:01 12° NNW 13:39:40 10° NNW daylight
26 Feb - 01:15:29 10° N 01:18:23 13° NNE 01:21:15 10° ENE night (unlit)
26 Feb - 03:05:51 10° NW 03:12:01 46° NNE 03:18:12 10° E night (unlit)
26 Feb - 04:59:27 10° W 05:05:57 77° SSW 05:12:39 10° ESE visible
26 Feb - 06:53:57 10° WSW 07:00:25 57° S 07:07:14 10° ESE visible
26 Feb - 08:48:09 10° WSW 08:54:58 76° SSE 09:02:14 10° E daylight
26 Feb - 10:42:22 10° W 10:49:10 51° NNW 10:56:24 10° NE daylight
26 Feb - 12:38:38 10° WNW 12:43:10 17° NNW 12:47:48 10° N daylight
27 Feb - 02:12:31 10° NW 02:18:22 34° NNE 02:24:09 10° E night (unlit)
27 Feb - 04:05:40 10° WNW 04:12:11 89° NE 04:18:47 10° ESE night (unlit)
27 Feb - 06:00:06 10° W 06:06:31 57° S 06:13:11 10° ESE visible
27 Feb - 07:54:26 10° WSW 08:01:04 67° S 08:08:06 10° E visible
27 Feb - 09:48:31 10° WSW 09:55:21 65° NNW 10:02:36 10° ENE daylight
27 Feb - 11:43:50 10° W 11:49:19 23° NNW 11:55:02 10° NNE daylight
28 Feb - 01:19:23 10° NNW 01:24:42 25° NNE 01:29:55 10° E night (unlit)
28 Feb - 03:11:56 10° WNW 03:18:27 73° NNE 03:24:57 10° ESE night (unlit)
28 Feb - 05:06:14 10° W 05:12:38 61° S 05:19:13 10° ESE visible
28 Feb - 07:00:41 10° WSW 07:07:11 60° S 07:13:59 10° E visible
28 Feb - 08:54:45 10° WSW 09:01:31 80° NNW 09:08:43 10° ENE daylight
28 Feb - 10:49:29 10° W 10:55:31 31° NNW 11:01:51 10° NNE daylight
29 Feb - 00:26:35 10° NNW 00:31:02 18° NNE 00:35:23 10° ENE night (unlit)
29 Feb - 02:18:16 10° NW 02:24:45 57° NNE 02:31:06 10° E night (unlit)
29 Feb - 04:12:19 10° W 04:18:48 68° SSW 04:25:21 10° ESE night (unlit)
29 Feb - 06:06:53 10° WSW 06:13:17 57° S 06:19:54 10° E visible
29 Feb - 08:01:02 10° WSW 08:07:42 86° SSE 08:14:44 10° ENE visible
29 Feb - 09:55:24 10° W 10:01:44 40° NNW 10:08:25 10° NE daylight
29 Feb - 11:53:08 10° NW 11:55:39 12° NNW 11:58:14 10° N daylight
29 Feb - 23:34:23 10° N 23:37:19 13° NNE 23:40:11 10° ENE visible
01 Mar - 01:24:43 10° NW 01:31:04 44° NNE 01:37:12 10° E night (unlit)
01 Mar - 03:18:25 10° WNW 03:25:01 79° SSW 03:31:32 10° ESE night (unlit)
01 Mar - 05:13:02 10° WSW 05:19:24 56° S 05:25:54 10° ESE visible
01 Mar - 07:07:19 10° WSW 07:13:52 73° SSE 07:20:43 10° E visible
01 Mar - 09:01:29 10° W 09:07:57 52° NNW 09:14:49 10° NE daylight
01 Mar - 10:57:32 10° WNW 11:01:50 17° NNW 11:06:17 10° N daylight
